ラーセン彗星

264P/Larsen (2019)

English version
Home page
Updated on May 19, 2019

---------------------------------------------------------------------

・ プロフィール

・ 軌道要素

Epoch 2019 July 16.0 TT = JDT 2458680.5
T 2019 Aug. 4.89841 TT                                  MPCW
q   2.4384106            (2000.0)            P               Q
n   0.12827496     Peri.  346.61744     -0.87247816     +0.40166761
a   3.8938104      Node   220.90288     -0.40002286     -0.91417328
e   0.3737726      Incl.   25.15147     -0.28064847     +0.05431706
P   7.68
From 98 observations 2004 Apr. 22-2019 May 2, mean residual 0".6.

・ 光度変化

        m1 = 10 + 5 logΔ + 20 log r

---------------------------------------------------------------------

軌道要素はM.P.E.C. 2019-J142に掲載されたものです。
光度グラフはComet for Windowsで作成したものです。

---------------------------------------------------------------------

Copyright(C) Seiichi Yoshida (comet@aerith.net). All rights reserved.